User: anonymous   Login
Location: Unspecified
(0.0000°N, 0.0000°E)
Time: 12:04:55
(UTC+02:00)
Language:

Cosmos 1295 Rocket - Orbit

View from above orbital plane
View from above orbital plane
View from above satellite
View from above satellite

Ground track
Ground track

The orbit data is extracted from the following two-line orbital elements,

1 12682U 81077B   16151.50728005  .00000099  00000-0  83094-4 0  9999
2 12682  82.9159 302.3420 0033417 339.5533  82.3708 13.78525513750143
Epoch (UTC): 30 May 2016 12:10:28
Eccentricity: 0.0033417
inclination: 82.9159°
perigee height: 944 km
apogee height: 993 km
right ascension of ascending node: 302.3420°
argument of perigee: 339.5533°
revolutions per day: 13.78525513
mean anomaly at epoch: 82.3708°
orbit number at epoch: 75014

The dashed part of the orbit path shows where the satellite is in the earth's shadow,  

DLR